EW7272 Weather Reports


time (UTC)temp
F
wind
direction
speed
knots
gust
knots
rain 1hr
in
rain 24hr
in
rain mn
in
humidity
%
barometer
mb
20260505231013 52 360 6.1 13.9 0.00 0.00 0.00 77 1009.7
20260505230504 52 360 10.4 16.5 0.00 0.00 0.00 76 1009.5
20260505230015 52 360 9.6 16.5 0.00 0.00 0.00 76 1009.5
20260505225505 52 360 8.7 15.6 0.00 0.00 0.00 76 1009.5
20260505225005 52 360 8.7 17.4 0.00 0.00 0.00 76 1009.2
20260505224513 52 360 9.6 17.4 0.00 0.00 0.00 75 1009.2
20260505224005 53 360 7.0 13.9 0.00 0.00 0.00 76 1009.1
20260505223505 53 360 8.7 15.6 0.00 0.00 0.00 76 1009.1
20260505223015 53 360 9.6 15.6 0.00 0.00 0.00 76 1009.2
20260505222507 53 360 7.8 16.5 0.00 0.00 0.00 76 1009.1
20260505222008 53 360 9.6 16.5 0.00 0.00 0.00 76 1009.1
20260505221522 53 360 9.6 16.5 0.00 0.00 0.00 76 1009.0
20260505221007 53 360 11.3 16.5 0.00 0.00 0.00 75 1008.9
20260505220509 53 360 8.7 16.5 0.00 0.00 0.00 75 1008.9
20260505220025 53 360 9.6 15.6 0.00 0.00 0.00 74 1008.8
20260505215509 53 360 10.4 15.6 0.00 0.00 0.00 75 1008.8
20260505215007 53 360 9.6 15.6 0.00 0.00 0.00 75 1008.5
20260505214506 53 360 9.6 16.5 0.00 0.00 0.00 75 1008.5
20260505214008 53 360 7.8 16.5 0.00 0.00 0.00 75 1008.5
20260505213506 53 360 10.4 18.2 0.00 0.00 0.00 75 1008.1
20260505213017 53 360 8.7 18.2 0.00 0.00 0.00 75 1008.5
20260505212508 53 360 7.8 16.5 0.00 0.00 0.00 76 1008.4
20260505212010 53 360 10.4 17.4 0.00 0.00 0.00 75 1008.2
20260505211517 54 360 10.4 18.2 0.00 0.00 0.00 75 1008.4
20260505211007 54 360 9.6 21.7 0.00 0.00 0.00 75 1008.0
20260505210509 54 360 11.3 21.7 0.00 0.00 0.00 75 1007.5
20260505210023 54 360 8.7 21.7 0.00 0.00 0.00 76 1007.8
20260505205513 54 360 13.9 21.7 0.00 0.00 0.00 75 1007.0
20260505205010 54 360 12.2 18.2 0.00 0.00 0.00 76 1007.5
20260505204526 54 360 9.6 16.5 0.00 0.00 0.00 76 1008.2
20260505204008 54 360 11.3 17.4 0.00 0.00 0.00 77 1007.5
20260505203508 54 360 9.6 17.4 0.00 0.00 0.00 77 1008.0
20260505203037 54 360 8.7 19.1 0.00 0.00 0.00 78 1008.2
20260505202506 54 360 10.4 19.1 0.00 0.00 0.00 79 1008.2
20260505202006 53 360 12.2 19.1 0.00 0.00 0.00 79 1008.1
20260505201527 53 360 11.3 18.2 0.00 0.00 0.00 79 1008.6
20260505201009 54 360 9.6 17.4 0.00 0.00 0.00 80 1007.9
20260505200508 54 360 11.3 17.4 0.00 0.00 0.00 79 1008.1
20260505200021 54 360 7.0 18.2 0.00 0.00 0.00 80 1007.9
20260505195506 54 360 11.3 18.2 0.00 0.00 0.00 80 1007.5
20260505195009 54 360 9.6 19.1 0.00 0.00 0.00 80 1007.4
20260505194523 54 360 10.4 19.1 0.00 0.00 0.00 80 1007.6
20260505194013 54 360 7.8 19.1 0.00 0.00 0.00 81 1007.6
20260505193509 54 360 9.6 19.1 0.00 0.00 0.00 81 1007.4
20260505193032 54 360 9.6 19.1 0.00 0.00 0.00 81 1007.4
20260505192512 54 360 7.8 16.5 0.00 0.00 0.00 81 1007.5
20260505192007 54 360 11.3 16.5 0.00 0.00 0.00 81 1007.5
20260505191525 54 360 8.7 16.5 0.00 0.00 0.00 81 1007.6
20260505191006 55 360 11.3 18.2 0.00 0.00 0.00 81 1007.5
20260505190510 55 360 10.4 18.2 0.00 0.00 0.00 80 1007.6
20260505190015 55 360 10.4 18.2 0.00 0.00 0.00 80 1007.3
20260505185509 55 360 12.2 20.9 0.00 0.00 0.00 79 1006.9
20260505185008 56 360 13.9 20.9 0.00 0.00 0.00 79 1006.7
20260505184520 56 360 11.3 20.0 0.00 0.00 0.00 79 1007.1
20260505184011 56 360 12.2 19.1 0.00 0.00 0.00 79 1007.2
20260505183511 56 360 12.2 19.1 0.00 0.00 0.00 79 1007.2
20260505183026 56 360 10.4 19.1 0.00 0.00 0.00 79 1007.1
20260505182507 56 360 11.3 18.2 0.00 0.00 0.00 79 1007.0
20260505182012 56 360 7.8 18.2 0.00 0.00 0.00 80 1007.0
20260505181530 56 360 11.3 18.2 0.00 0.00 0.00 80 1006.9
20260505181009 56 360 10.4 17.4 0.00 0.00 0.00 80 1006.8
20260505180508 56 360 8.7 18.2 0.00 0.00 0.00 80 1006.6
20260505180027 56 360 11.3 18.2 0.00 0.00 0.00 80 1006.6
20260505175512 57 360 8.7 16.5 0.00 0.00 0.00 80 1006.4
20260505175006 57 360 10.4 15.6 0.00 0.00 0.00 80 1006.3
20260505174528 57 360 7.8 14.8 0.00 0.00 0.00 81 1006.3
20260505174008 57 360 7.0 16.5 0.00 0.00 0.00 81 1006.3
20260505173507 57 360 7.0 16.5 0.00 0.00 0.00 82 1006.2
20260505173028 57 360 7.0 15.6 0.00 0.00 0.00 81 1006.2
20260505172508 57 360 7.0 19.1 0.00 0.00 0.00 82 1006.3
20260505172012 57 360 9.6 19.1 0.00 0.00 0.00 82 1006.2
20260505171526 57 360 8.7 15.6 0.00 0.00 0.00 82 1006.2
20260505171013 57 360 7.8 15.6 0.00 0.00 0.00 83 1006.2
20260505170508 57 360 7.8 18.2 0.00 0.00 0.00 82 1005.9
20260505170028 57 360 9.6 19.1 0.00 0.00 0.00 83 1005.7
20260505165506 57 360 12.2 20.9 0.00 0.00 0.00 82 1005.6
20260505165009 57 360 8.7 20.9 0.00 0.00 0.00 82 1005.5
20260505164503 58 360 9.6 20.0 0.00 0.00 0.00 82 1005.4
20260505164003 57 360 8.7 20.0 0.00 0.00 0.00 82 1005.4
20260505163503 58 360 12.2 20.0 0.00 0.00 0.00 83 1005.3
20260505163004 58 360 13.0 20.0 0.00 0.00 0.00 83 1005.2
20260505162504 58 360 10.4 18.2 0.00 0.00 0.00 83 1005.2
20260505162003 58 360 10.4 18.2 0.00 0.00 0.00 83 1005.0
20260505161506 58 360 8.7 23.5 0.00 0.00 0.00 82 1004.9
20260505161003 58 360 7.8 23.5 0.00 0.00 0.00 83 1004.8
20260505160503 59 360 10.4 19.1 0.00 0.00 0.00 83 1004.6
20260505153003 60 360 11.3 19.1 0.00 0.00 0.00 82 1003.5
20260505152504 61 360 10.4 18.2 0.00 0.00 0.00 81 1003.4
20260505152005 62 360 8.7 18.2 0.00 0.00 0.00 80 1003.3
20260505151503 64 360 6.1 15.6 0.00 0.00 0.00 78 1003.2
20260505151004 66 9 7.8 15.6 0.00 0.00 0.00 75 1003.0
20260505150504 68 28 5.2 14.8 0.00 0.00 0.00 82 1002.7
20260505140502 70 44 0.0 1.7 0.00 0.00 0.00 79 1001.6
20260505125005 68 13 0.0 2.6 0.00 0.00 0.00 81 1001.3
20260505124510 68 12 0.0 1.7 0.00 0.00 0.00 81 1001.2
20260505124005 68 12 0.0 3.5 0.00 0.00 0.00 80 1001.1
20260505123507 68 12 1.7 4.3 0.00 0.00 0.00 80 1001.1
20260505123010 69 258 0.0 4.3 0.00 0.00 0.00 80 1000.8
20260505122508 68 227 2.6 7.8 0.00 0.00 0.00 80 1000.4
20260505122008 68 238 4.3 7.8 0.00 0.00 0.00 80 1000.2
20260505121516 68 202 4.3 8.7 0.00 0.00 0.00 80 1000.2
20260505121007 68 209 4.3 8.7 0.00 0.00 0.00 80 1000.2
20260505120510 68 211 5.2 10.4 0.00 0.00 0.00 80 1000.1
20260505120019 68 234 4.3 10.4 0.00 0.00 0.00 80 1000.0
20260505115508 69 211 6.1 12.2 0.00 0.00 0.00 79 999.9
20260505115009 69 209 5.2 12.2 0.00 0.00 0.00 79 999.8
20260505114522 69 193 5.2 15.6 0.00 0.00 0.00 79 999.7
20260505114006 69 197 5.2 15.6 0.00 0.00 0.00 79 999.5
20260505113501 69 189 6.1 12.2 0.00 0.00 0.00 79 999.4
20260505113012 69 202 7.0 12.2 0.00 0.00 0.00 79 999.3
20260505112503 69 226 6.1 11.3 0.00 0.00 0.00 78 999.2
20260505112007 69 194 7.8 11.3 0.00 0.00 0.00 78 999.1
20260505111512 69 205 7.0 13.9 0.00 0.00 0.00 78 999.1
20260505111005 69 227 7.8 13.9 0.00 0.00 0.00 78 999.2
20260505110508 69 207 6.1 10.4 0.00 0.00 0.00 78 999.2
20260505102005 71 224 6.1 14.8 0.00 0.00 0.00 76 999.0
20260505101506 71 209 7.0 13.9 0.00 0.00 0.00 76 999.0
20260505101004 71 198 7.8 13.9 0.00 0.00 0.00 76 998.9
20260505100507 71 202 7.0 12.2 0.00 0.00 0.00 76 999.0
20260505100014 71 200 7.0 13.0 0.00 0.00 0.00 76 998.9
20260505095507 71 179 7.8 13.0 0.00 0.00 0.00 76 998.9
20260505095007 71 180 7.0 12.2 0.00 0.00 0.00 76 998.8
20260505094518 71 203 6.1 13.0 0.00 0.00 0.00 77 998.9
20260505094009 71 176 7.8 13.0 0.00 0.00 0.00 77 998.9
20260505093509 71 169 7.8 13.0 0.00 0.00 0.00 77 998.9
20260505093029 71 170 6.1 13.0 0.00 0.00 0.00 76 999.0
20260505092512 71 197 7.8 13.0 0.00 0.00 0.00 76 999.0
20260505092012 71 209 7.0 12.2 0.00 0.00 0.00 76 998.9
20260505091528 71 200 7.8 13.9 0.00 0.00 0.00 76 999.0
20260505091011 71 232 7.0 13.9 0.00 0.00 0.00 76 999.1
20260505090504 71 218 7.0 13.9 0.00 0.00 0.00 76 999.2
20260505090010 71 194 5.2 13.0 0.00 0.00 0.00 76 999.1
20260505085507 71 162 7.0 15.6 0.00 0.00 0.00 76 999.2
20260505085009 71 217 7.0 15.6 0.00 0.00 0.00 76 999.3
20260505084519 71 220 6.1 13.0 0.00 0.00 0.00 76 999.3
20260505084009 71 240 6.1 13.0 0.00 0.00 0.00 76 999.3
20260505083507 71 180 6.1 13.0 0.00 0.00 0.00 76 999.3
20260505083020 71 205 5.2 13.9 0.00 0.00 0.00 76 999.2
20260505082508 71 202 7.0 13.9 0.00 0.00 0.00 76 999.3
20260505082012 71 214 6.1 13.9 0.00 0.00 0.00 76 999.5
20260505081529 71 209 6.1 11.3 0.00 0.00 0.00 76 999.5
20260505081011 71 201 6.1 11.3 0.00 0.00 0.00 76 999.6
20260505080509 71 213 7.0 11.3 0.00 0.00 0.00 76 999.6
20260505080026 71 213 7.0 11.3 0.00 0.00 0.00 76 999.6
20260505075509 71 185 6.1 13.0 0.00 0.00 0.00 76 999.5
20260505075004 71 205 6.1 13.0 0.00 0.00 0.00 76 999.6
20260505074517 72 155 6.1 13.0 0.00 0.00 0.00 76 999.8
20260505074008 71 200 7.8 12.2 0.00 0.00 0.00 76 999.9
20260505073504 71 188 6.1 13.0 0.00 0.00 0.00 76 1000.0
20260505073004 71 227 6.1 13.0 0.00 0.00 0.00 76 999.9
20260505072503 71 206 7.0 13.9 0.00 0.00 0.00 76 999.8
20260505072003 71 190 7.8 13.0 0.00 0.00 0.00 76 1000.0
20260505071504 71 202 6.1 11.3 0.00 0.00 0.00 76 1000.1
20260505071003 71 183 7.0 11.3 0.00 0.00 0.00 76 1000.1
20260505070507 71 198 7.0 13.0 0.00 0.00 0.00 76 1000.1
20260505070007 71 190 6.1 13.0 0.00 0.00 0.00 76 1000.3
20260505065508 71 174 6.1 13.0 0.00 0.00 0.00 76 1000.3
20260505065005 71 157 7.0 16.5 0.00 0.00 0.00 76 1000.4
20260505064511 71 214 7.8 16.5 0.00 0.00 0.00 76 1000.5
20260505064009 71 181 5.2 14.8 0.00 0.00 0.00 76 1000.5
20260505063504 71 159 7.8 14.8 0.00 0.00 0.00 76 1000.5
20260505063014 71 188 7.8 13.0 0.00 0.00 0.00 75 1000.5
20260505062510 71 188 6.1 12.2 0.00 0.00 0.00 75 1000.5
20260505062010 71 186 5.2 13.9 0.00 0.00 0.00 75 1000.5
20260505061502 72 189 6.1 13.9 0.00 0.00 0.00 75 1000.6
20260505061001 72 184 7.0 13.0 0.00 0.00 0.00 74 1000.6
20260505060504 72 176 7.8 13.0 0.00 0.00 0.00 74 1000.6
20260505060011 72 211 7.8 13.0 0.00 0.00 0.00 74 1000.7
20260505055502 72 207 5.2 13.0 0.00 0.00 0.00 74 1000.8
20260505055003 72 217 6.1 13.0 0.00 0.00 0.00 74 1000.9
20260505054506 72 178 8.7 17.4 0.00 0.00 0.00 74 1000.9
20260505054006 72 206 9.6 18.2 0.00 0.00 0.00 74 1000.9
20260505053507 72 180 8.7 18.2 0.00 0.00 0.00 74 1000.9
20260505053014 72 178 6.1 14.8 0.00 0.00 0.00 73 1000.9
20260505052504 72 216 8.7 17.4 0.00 0.00 0.00 73 1000.9
20260505052008 72 206 8.7 17.4 0.00 0.00 0.00 73 1001.0
20260505051517 72 182 7.8 12.2 0.00 0.00 0.00 73 1001.1
20260505051009 73 182 6.1 13.0 0.00 0.00 0.00 72 1001.2
20260505050510 73 193 6.1 13.0 0.00 0.00 0.00 72 1001.2
20260505041527 73 188 6.1 13.9 0.00 0.00 0.00 71 1001.4
20260505041007 73 186 6.1 18.2 0.00 0.00 0.00 71 1001.4
20260505040509 73 203 7.0 18.2 0.00 0.00 0.00 71 1001.4
20260505040018 74 184 7.0 13.0 0.00 0.00 0.00 71 1001.5
20260505035513 74 197 4.3 13.0 0.00 0.00 0.00 71 1001.7
20260505035011 74 217 5.2 13.0 0.00 0.00 0.00 70 1001.7
20260505034523 74 219 6.1 13.9 0.00 0.00 0.00 70 1001.7
20260505034002 74 147 6.1 13.9 0.00 0.00 0.00 70 1001.5
20260505033503 74 360 7.8 16.5 0.00 0.00 0.00 69 1001.5
20260505033016 74 190 6.1 16.5 0.00 0.00 0.00 69 1001.6
20260505032502 74 200 7.0 14.8 0.00 0.00 0.00 69 1001.4
20260505032009 75 185 7.0 14.8 0.00 0.00 0.00 68 1001.3
20260505031511 75 360 7.0 14.8 0.00 0.00 0.00 68 1001.5
20260505031008 75 360 7.0 14.8 0.00 0.00 0.00 68 1001.4
20260505030507 75 187 6.1 13.0 0.00 0.00 0.00 67 1001.3
20260505030029 75 201 7.0 15.6 0.00 0.00 0.00 67 1001.2
20260505025508 75 194 7.8 15.6 0.00 0.00 0.00 67 1001.4
20260505025009 75 200 6.1 13.9 0.00 0.00 0.00 66 1001.3
20260505024522 75 176 7.0 13.9 0.00 0.00 0.00 66 1001.2
20260505024008 76 183 6.1 13.9 0.00 0.00 0.00 66 1001.3
20260505023509 76 194 7.8 18.2 0.00 0.00 0.00 66 1001.2
20260505023023 76 146 6.1 18.2 0.00 0.00 0.00 65 1001.2
20260505022503 76 223 6.1 14.8 0.00 0.00 0.00 65 1001.1
20260505022004 76 149 5.2 13.9 0.00 0.00 0.00 65 1001.0
20260505021508 76 209 6.1 13.9 0.00 0.00 0.00 65 1001.1
20260505021007 76 205 6.1 16.5 0.00 0.00 0.00 64 1001.1
20260505020506 76 196 7.0 16.5 0.00 0.00 0.00 64 1001.0
20260505020014 76 230 7.0 13.9 0.00 0.00 0.00 64 1001.0
20260505015507 76 183 6.1 12.2 0.00 0.00 0.00 64 1001.0
20260505015008 76 175 6.1 15.6 0.00 0.00 0.00 63 1000.9
20260505014520 77 205 7.8 15.6 0.00 0.00 0.00 63 1000.9
20260505014009 77 173 6.1 13.0 0.00 0.00 0.00 62 1001.0
20260505013509 77 212 6.1 14.8 0.00 0.00 0.00 62 1000.9
20260505013022 77 140 5.2 14.8 0.00 0.00 0.00 62 1000.8
20260505012510 77 132 6.1 17.4 0.00 0.00 0.00 62 1000.7
20260505012011 77 146 7.8 17.4 0.00 0.00 0.00 61 1000.8
20260505011526 77 159 7.8 16.5 0.00 0.00 0.00 61 1000.9
20260505011003 77 219 7.0 18.2 0.00 0.00 0.00 61 1000.9
20260505010503 78 360 8.7 18.2 0.00 0.00 0.00 61 1000.9
20260505010013 78 360 5.2 16.5 0.00 0.00 0.00 61 1001.0
20260505005504 78 189 7.0 16.5 0.00 0.00 0.00 60 1001.1
20260505005007 78 360 7.0 15.6 0.00 0.00 0.00 60 1001.3
20260505004534 78 185 7.0 15.6 0.00 0.00 0.00 59 1001.2
20260505004008 79 192 7.0 14.8 0.00 0.00 0.00 59 1001.1
20260505003510 79 182 5.2 15.6 0.00 0.00 0.00 59 1001.2
20260505003022 79 196 7.0 15.6 0.00 0.00 0.00 58 1001.1
20260505002506 79 201 7.8 14.8 0.00 0.00 0.00 58 1001.1
20260505002007 79 181 6.1 13.9 0.00 0.00 0.00 58 1001.2
20260505001524 80 205 6.1 14.8 0.00 0.00 0.00 58 1001.3
20260505001013 80 171 6.1 14.8 0.00 0.00 0.00 58 1001.2
20260505000507 80 155 6.1 16.5 0.00 0.00 0.00 57 1001.2
20260505000026 80 165 8.7 16.5 0.00 0.00 0.00 57 1001.3
20260504235510 80 174 7.8 15.6 0.00 0.00 0.00 57 1001.5
20260504235008 80 213 7.0 14.8 0.00 0.00 0.00 57 1001.5
20260504234525 80 202 7.8 19.1 0.00 0.00 0.00 57 1001.6
20260504234006 80 194 9.6 19.1 0.00 0.00 0.00 56 1001.6
20260504233507 81 163 10.4 19.1 0.00 0.00 0.00 56 1001.7
20260504233018 81 207 7.8 19.1 0.00 0.00 0.00 56 1001.7
20260504232508 81 200 8.7 23.5 0.00 0.00 0.00 55 1001.7
20260504232008 81 192 9.6 23.5 0.00 0.00 0.00 54 1001.7
20260504231538 81 161 9.6 18.2 0.00 0.00 0.00 54 1001.6